Weather History for Big Delta, AK

Change the Weather History Date:

Wednesday, January 2, 2013

  Actual Average Record
Temperature  
Mean Temperature 30 °F -  
Max Temperature 36 °F 2 °F 51 °F (2011)
Min Temperature 25 °F -8 °F -43 °F (2009)
Degree Days  
Heating Degree Days 34    
Moisture  
Dew Point 18 °F    
Average Humidity 50    
Maximum Humidity 72    
Minimum Humidity 34    
Precipitation  
Precipitation 0.00 in - - ()
Sea Level Pressure  
Sea Level Pressure 29.45 in    
Wind  
Wind Speed 20 mph (South)    
Max Wind Speed 30 mph    
Max Gust Speed 43 mph    
Visibility 10 miles    
Events      
Averages and records for this station are not official NWS values.
T = Trace of Precipitation, MM = Missing Value Source: NWS Daily Summary

Daily Weather History Graph

Daily Weather History Graph

Search for Another Location

Airport:

Trip Planner

Search our weather history database for the weather conditions in past years. The results will help you decide how hot, cold, wet, or windy it might be!

Date:

Astronomy

Jan. 02, 2013 Rise Set
Actual Time 10:30 AM AKST 3:04 PM AKST
Civil Twilight 9:16 AM AKST 4:18 PM AKST
Nautical Twilight 8:08 AM AKST 5:25 PM AKST
Astronomical Twilight 7:09 AM AKST 6:24 PM AKST
Moon 11:15 PM AKST (1/2) 10:59 AM AKST (1/2)
Length of Visible Light 7h 02m
Length of Day
4h 33m
Waning Gibbous, 74% of the Moon is Illuminated
Jan 2
Waning Gibbous
Jan 4
Last Quarter
Jan 11
New
Jan 18
First Quarter
Jan 26
Full

Hourly Weather History & Observations

Time (AKST) Temp. Windchill Dew Point Humidity Pressure Visibility Wind Dir Wind Speed Gust Speed Precip Events Conditions
12:53 AM 23.0 °F 11.7 °F 15.1 °F 72% 29.27 in 10.0 mi East 11.5 mph - N/A   Clear
1:53 AM 25.0 °F 17.1 °F 16.0 °F 69% 29.30 in 10.0 mi ENE 6.9 mph - N/A   Mostly Cloudy
2:53 AM 33.1 °F 21.9 °F 21.0 °F 61% 29.29 in 10.0 mi SW 18.4 mph 24.2 mph N/A   Mostly Cloudy
3:53 AM 34.0 °F 22.4 °F 19.0 °F 54% 29.31 in 10.0 mi SSW 20.7 mph 32.2 mph N/A   Overcast
4:53 AM 34.0 °F 22.4 °F 18.0 °F 52% 29.34 in 10.0 mi South 20.7 mph 31.1 mph N/A   Partly Cloudy
5:53 AM 34.0 °F 23.4 °F 18.0 °F 52% 29.37 in 10.0 mi South 17.3 mph 27.6 mph N/A   Clear
6:53 AM 35.1 °F 22.2 °F 18.0 °F 50% 29.38 in 10.0 mi South 27.6 mph 34.5 mph N/A   Mostly Cloudy
7:53 AM 35.1 °F 23.3 °F 18.0 °F 50% 29.39 in 10.0 mi South 23.0 mph 29.9 mph N/A   Mostly Cloudy
8:53 AM 35.1 °F 22.0 °F 18.0 °F 50% 29.40 in 10.0 mi South 28.8 mph 36.8 mph N/A   Mostly Cloudy
9:53 AM 35.1 °F 22.2 °F 18.0 °F 50% 29.42 in 10.0 mi South 27.6 mph 40.3 mph N/A   Mostly Cloudy
10:53 AM 35.1 °F 22.2 °F 18.0 °F 50% 29.44 in 10.0 mi South 27.6 mph 41.4 mph N/A   Scattered Clouds
11:53 AM 35.1 °F 23.0 °F 18.0 °F 50% 29.47 in 10.0 mi South 24.2 mph 34.5 mph N/A   Mostly Cloudy
12:53 PM 36.0 °F 24.2 °F 18.0 °F 48% 29.47 in 10.0 mi South 24.2 mph 36.8 mph N/A   Mostly Cloudy
1:53 PM 36.0 °F 25.0 °F 18.0 °F 48% 29.49 in 10.0 mi South 20.7 mph 33.4 mph N/A   Mostly Cloudy
2:53 PM 35.1 °F 25.5 °F 18.0 °F 50% 29.50 in 10.0 mi South 15.0 mph 25.3 mph N/A   Mostly Cloudy
3:53 PM 35.1 °F 25.5 °F 19.0 °F 52% 29.52 in 10.0 mi South 15.0 mph 24.2 mph N/A   Mostly Cloudy
4:53 PM 35.1 °F 23.0 °F 19.0 °F 52% 29.52 in 10.0 mi South 24.2 mph 32.2 mph N/A   Mostly Cloudy
5:53 PM 36.0 °F 24.7 °F 17.1 °F 46% 29.54 in 10.0 mi South 21.9 mph 38.0 mph N/A   Mostly Cloudy
6:53 PM 35.1 °F 22.0 °F 17.1 °F 48% 29.54 in 10.0 mi South 28.8 mph 39.1 mph N/A   Mostly Cloudy
7:53 PM 35.1 °F 22.5 °F 16.0 °F 46% 29.55 in 10.0 mi South 26.5 mph 42.6 mph N/A   Mostly Cloudy
8:53 PM 35.1 °F 21.8 °F 17.1 °F 48% 29.56 in 10.0 mi South 29.9 mph 41.4 mph N/A   Mostly Cloudy
9:35 PM 35.6 °F 22.7 °F 17.6 °F 48% 29.51 in 10.0 mi South 28.8 mph 42.6 mph N/A   Mostly Cloudy
9:53 PM 35.1 °F 22.5 °F 17.1 °F 48% 29.57 in 10.0 mi South 26.5 mph 41.4 mph N/A   Clear
10:53 PM 35.1 °F 21.8 °F 18.0 °F 50% 29.59 in 10.0 mi South 29.9 mph 38.0 mph N/A   Clear
11:53 PM 32.0 °F 22.1 °F 16.0 °F 52% 29.62 in 10.0 mi ESE 13.8 mph 29.9 mph N/A   Clear